TimeEDT,TemperatureF,Dew PointF,Humidity,Sea Level PressureIn,VisibilityMPH,Wind Direction,Wind SpeedMPH,Gust SpeedMPH,PrecipitationIn,Events,Conditions,WindDirDegrees,DateUTC
12:52 AM,46.0,34.0,63,30.58,10.0,ESE,10.4,-,N/A,,Mostly Cloudy,120,2013-04-22 04:52:00
1:52 AM,44.1,33.1,65,30.58,10.0,ESE,4.6,-,N/A,,Mostly Cloudy,110,2013-04-22 05:52:00
2:52 AM,43.0,33.1,68,30.58,10.0,ENE,4.6,-,N/A,,Mostly Cloudy,60,2013-04-22 06:52:00
3:52 AM,43.0,33.1,68,30.56,10.0,NE,9.2,-,N/A,,Mostly Cloudy,50,2013-04-22 07:52:00
4:52 AM,42.1,33.1,70,30.56,10.0,NE,6.9,-,N/A,,Mostly Cloudy,50,2013-04-22 08:52:00
5:52 AM,41.0,33.1,73,30.56,10.0,NE,6.9,-,N/A,,Scattered Clouds,40,2013-04-22 09:52:00
6:52 AM,42.1,33.1,70,30.56,10.0,NE,8.1,-,N/A,,Mostly Cloudy,50,2013-04-22 10:52:00
7:52 AM,44.6,35.6,71,30.58,10.0,NE,8.1,-,N/A,,Mostly Cloudy,50,2013-04-22 11:52:00
8:22 AM,46.4,35.6,66,30.57,10.0,ENE,10.4,-,N/A,,Mostly Cloudy,60,2013-04-22 12:22:00
8:52 AM,46.9,37.0,68,30.57,10.0,ENE,11.5,-,N/A,,Mostly Cloudy,60,2013-04-22 12:52:00
9:52 AM,48.9,36.0,61,30.57,10.0,ENE,15.0,23.0,N/A,,Mostly Cloudy,70,2013-04-22 13:52:00
10:52 AM,51.1,36.0,56,30.56,10.0,ENE,9.2,-,N/A,,Mostly Cloudy,60,2013-04-22 14:52:00
11:52 AM,53.1,36.0,52,30.55,10.0,ESE,15.0,-,N/A,,Mostly Cloudy,110,2013-04-22 15:52:00
12:52 PM,54.0,35.1,49,30.53,10.0,East,6.9,18.4,N/A,,Overcast,90,2013-04-22 16:52:00
1:52 PM,55.0,36.0,49,30.51,10.0,ENE,12.7,18.4,N/A,,Mostly Cloudy,70,2013-04-22 17:52:00
2:52 PM,55.9,36.0,47,30.48,10.0,ENE,10.4,-,N/A,,Mostly Cloudy,70,2013-04-22 18:52:00
3:52 PM,55.9,35.1,45,30.45,10.0,East,12.7,18.4,N/A,,Scattered Clouds,100,2013-04-22 19:52:00
4:52 PM,55.9,36.0,47,30.43,10.0,East,13.8,21.9,N/A,,Mostly Cloudy,90,2013-04-22 20:52:00
5:52 PM,55.0,37.0,51,30.43,10.0,East,13.8,-,N/A,,Mostly Cloudy,80,2013-04-22 21:52:00
6:52 PM,54.0,35.1,49,30.42,10.0,East,15.0,-,N/A,,Mostly Cloudy,90,2013-04-22 22:52:00
7:52 PM,53.1,36.0,52,30.43,10.0,East,11.5,-,N/A,,Mostly Cloudy,90,2013-04-22 23:52:00
8:52 PM,52.0,35.1,53,30.44,10.0,ESE,11.5,-,N/A,,Overcast,110,2013-04-23 00:52:00
9:52 PM,52.0,35.1,53,30.44,10.0,ENE,11.5,-,N/A,,Overcast,70,2013-04-23 01:52:00
10:52 PM,51.1,36.0,56,30.43,10.0,East,10.4,-,N/A,,Overcast,80,2013-04-23 02:52:00
11:52 PM,50.0,36.0,59,30.42,10.0,ENE,11.5,-,N/A,,Overcast,60,2013-04-23 03:52:00